Location: ???????
(55.2903°N, 39.1554°E)
Time: 17:50:15
(UTC+00:00)

Cosmos 1461 - Pass Details

Date: 14 April 2024
Orbit: 499 x 585 km, 65.0° (Epoch: 23 May)

Event Time Altitude Azimuth Distance (km) Brightness Sun altitude
Rises 00:55:37 0° 307° (NW) 2,633 6.1 -11.7°
Reaches altitude 10° 00:58:06 10° 293° (WNW) 1,731 5.1 -11.4°
Maximum altitude 01:01:11 23° 240° (WSW) 1,099 3.7 -11.0°
Drops below altitude 10° 01:04:15 10° 186° (S) 1,703 4.9 -10.7°
Sets 01:06:40 0° 172° (S) 2,580 6.0 -10.4°
